Weather History for Ephrata, WA

Change the Weather History Date:

Saturday, March 16, 2013

  Actual Average Record
Temperature  
Mean Temperature 45 °F 43 °F  
Max Temperature 57 °F 54 °F 72 °F (1972)
Min Temperature 32 °F 32 °F 23 °F (1955)
Degree Days  
Heating Degree Days 20 22  
Month to date heating degree days 342 390  
Since 1 July heating degree days 4575 4963  
Cooling Degree Days 0 0  
Month to date cooling degree days 0 0  
Year to date cooling degree days 0 0  
Moisture  
Dew Point 32 °F    
Average Humidity 65    
Maximum Humidity 89    
Minimum Humidity 40    
Precipitation  
Precipitation 0.02 in 0.03 in 0.23 in (1975)
Month to date precipitation 0.47 0.39  
Year to date precipitation 0.82 2.04  
Sea Level Pressure  
Sea Level Pressure 29.88 in    
Wind  
Wind Speed 9 mph (WSW)    
Max Wind Speed 29 mph    
Max Gust Speed 36 mph    
Visibility 10 miles    
Events Rain    
T = Trace of Precipitation, MM = Missing Value Source: NWS Daily Summary

Daily Weather History Graph

Daily Weather History Graph

Search for Another Location

Airport:

Trip Planner

Search our weather history database for the weather conditions in past years. The results will help you decide how hot, cold, wet, or windy it might be!

Date:

Astronomy

Mar. 16, 2013 Rise Set
Actual Time 7:08 AM PDT 7:05 PM PDT
Civil Twilight 6:37 AM PDT 7:36 PM PDT
Nautical Twilight 6:02 AM PDT 8:11 PM PDT
Astronomical Twilight 5:25 AM PDT 8:48 PM PDT
Moon 9:20 AM PDT (3/16) No Moon Set
Length of Visible Light 12h 58m
Length of Day
11h 57m
Waxing Crescent, 24% of the Moon is Illuminated
Mar 16
Waxing Crescent
Mar 19
First Quarter
Mar 27
Full
Apr 2
Last Quarter
Apr 10
New

Hourly Weather History & Observations

Time (PDT) Temp. Windchill Dew Point Humidity Pressure Visibility Wind Dir Wind Speed Gust Speed Precip Events Conditions
12:53 AM 46.0 °F 43.1 °F 37.0 °F 71% 30.04 in 10.0 mi SSW 5.8 mph - N/A   Scattered Clouds
1:53 AM 45.0 °F 41.2 °F 36.0 °F 71% 30.02 in 10.0 mi WNW 6.9 mph - N/A   Clear
2:53 AM 46.0 °F - 35.1 °F 66% 30.02 in 10.0 mi Calm Calm - N/A   Clear
3:53 AM 39.0 °F - 34.0 °F 82% 30.00 in 10.0 mi Calm Calm - N/A   Partly Cloudy
4:53 AM 35.1 °F 31.0 °F 30.9 °F 85% 29.99 in 10.0 mi SE 4.6 mph - N/A   Scattered Clouds
5:53 AM 35.1 °F 31.0 °F 32.0 °F 89% 29.98 in 10.0 mi SW 4.6 mph - N/A   Clear
6:53 AM 37.0 °F - 33.1 °F 86% 29.97 in 10.0 mi Calm Calm - N/A   Clear
7:53 AM 37.9 °F - 34.0 °F 86% 29.96 in 10.0 mi Calm Calm - N/A   Clear
8:53 AM 39.0 °F 36.8 °F 35.1 °F 86% 29.96 in 10.0 mi NE 3.5 mph - N/A   Clear
9:53 AM 39.9 °F - 36.0 °F 86% 29.96 in 10.0 mi Calm Calm - N/A   Clear
10:53 AM 42.1 °F - 37.0 °F 82% 29.94 in 10.0 mi Calm Calm - N/A   Clear
11:53 AM 48.0 °F - 39.0 °F 71% 29.91 in 10.0 mi Calm Calm - N/A   Clear
12:53 PM 55.0 °F - 33.1 °F 43% 29.87 in 10.0 mi SW 17.3 mph - N/A   Clear
1:53 PM 55.9 °F - 32.0 °F 40% 29.85 in 10.0 mi WSW 17.3 mph - N/A   Clear
2:53 PM 54.0 °F - 35.1 °F 49% 29.81 in 10.0 mi SW 17.3 mph - N/A   Scattered Clouds
3:53 PM 54.0 °F - 34.0 °F 47% 29.79 in 10.0 mi SSW 11.5 mph - N/A   Overcast
4:53 PM 53.1 °F - 34.0 °F 48% 29.76 in 10.0 mi South 15.0 mph - N/A   Overcast
5:34 PM 48.2 °F - 35.6 °F 62% 29.74 in 10.0 mi WNW 18.4 mph 26.5 mph 0.02 in Rain Light Rain
5:53 PM 48.9 °F - 35.1 °F 59% 29.75 in 10.0 mi West 16.1 mph 20.7 mph 0.02 in   Mostly Cloudy
6:53 PM 46.9 °F - 30.9 °F 54% 29.75 in 10.0 mi WSW 12.7 mph - N/A   Scattered Clouds
7:53 PM 46.9 °F - 27.0 °F 46% 29.75 in 10.0 mi West 17.3 mph - N/A   Overcast
8:53 PM 45.0 °F 37.6 °F 21.0 °F 39% 29.75 in 10.0 mi West 17.3 mph - N/A   Overcast
9:53 PM 42.1 °F 34.5 °F 21.0 °F 43% 29.77 in 10.0 mi West 15.0 mph - N/A   Clear
10:53 PM 41.0 °F 33.5 °F 21.9 °F 47% 29.79 in 10.0 mi WNW 13.8 mph - N/A   Clear
11:53 PM 39.0 °F 29.9 °F 23.0 °F 53% 29.81 in 10.0 mi West 17.3 mph 27.6 mph N/A   Clear